Location: Red Deer
(52.2681°N, 113.8112°W)
Time: 21:57:17
(UTC-06:00)

CAS-4B - Pass Details

Date: 04 June 2023
Orbit: 500 x 514 km, 43.0° (Epoch: 02 October)

Event Time Altitude Azimuth Distance (km) Brightness Sun altitude
Exits shadow 01:25:40 - 112° (ESE) 2,090 ? -15.3°
Enters shadow 02:37:32 -41° 264° (W) 9,029 ? -14.0°
Maximum altitude 03:01:00 21° 178° (S) 1,170 ? -12.9°
